User: anonymous   Login
Location: Caltech
(34.1382°N, 118.1253°W)
Time: 00:09:14
(UTC-07:00)
Language:

Spot 4 Rocket - Orbit

View from above orbital plane
View from above orbital plane
View from above satellite
View from above satellite

Ground track
Ground track

The orbit data is extracted from the following two-line orbital elements,

1 25261U 98017B   16268.97348441  .00000116  00000-0  57499-4 0  9990
2 25261  98.5098 214.0315 0003786 138.8212 221.3258 14.33510429967010
Epoch (UTC): 24 September 2016 23:21:49
Eccentricity: 0.0003786
inclination: 98.5098°
perigee height: 777 km
apogee height: 783 km
right ascension of ascending node: 214.0315°
argument of perigee: 138.8212°
revolutions per day: 14.33510429
mean anomaly at epoch: 221.3258°
orbit number at epoch: 96701

The dashed part of the orbit path shows where the satellite is in the earth's shadow,  

DLR